"startDT [UTC]","vpos","CH4 [ppm]","stdev(CH4) [ppm]","CO2 [ppm]","stdev(CO2) [ppm]","H2O [ppm]","stdev(H2O)","p_LGR [torr]","T_LGR [C]","mt1_LGR [us]","mt2_LGR [us]","T_ECpre [C]","T_EC1 [C]","T_EC2 [C]","p_inlet [hPa]","p_in [hPa]","p_out [hPa]","T_inlet [C]","RH_inlet [%]","dwpt_inlet [C]","T_vent [C]","RH_vent [%]","dwpt_vent [C]","flow_vent [l min-1]","flow_inlet [l min-1]","dwpt_sample [C]","T_room [C]"
2012-08-15 00:00:00,0.0,,,,,,,,,,,1.00,-26.17,-26.46,-47,545,-925,26.4,23.7,4.1,26.4,1.3,-31.0,5.73,2.38,-27.6,30.1
2012-08-15 00:01:00,0.0,,,,,,,,,,,1.02,-26.35,-26.47,-47,545,-925,26.4,23.2,3.7,26.4,1.3,-31.0,5.73,2.38,-27.6,30.1
2012-08-15 00:02:00,0.0,,,,,,,,,,,0.93,-26.31,-26.48,-47,545,-925,26.4,23.4,3.8,26.4,1.3,-31.0,5.73,2.40,-27.6,30.1
2012-08-15 00:03:00,0.0,,,,,,,,,,,1.05,-26.14,-26.48,-47,545,-925,26.4,23.7,4.0,26.4,1.3,-31.0,5.73,2.40,-27.6,30.1
2012-08-15 00:04:00,0.0,,,,,,,,,,,0.99,-26.29,-26.49,-47,545,-925,26.4,23.7,4.0,26.4,1.3,-31.1,5.73,2.40,-27.6,30.2
2012-08-15 00:05:00,0.0,,,,,,,,,,,0.90,-26.49,-26.27,-47,545,-925,26.4,23.7,4.0,26.4,1.3,-31.1,5.73,2.39,-27.6,30.2
2012-08-15 00:06:00,0.0,,,,,,,,,,,0.97,-26.69,-24.79,-47,545,-925,26.4,24.0,4.2,26.4,1.4,-30.8,5.73,2.39,-27.6,30.1
2012-08-15 00:07:00,0.0,,,,,,,,,,,0.89,-26.81,-22.84,-47,545,-925,26.4,23.8,4.1,26.4,1.5,-29.5,5.73,2.40,-27.6,30.1
2012-08-15 00:08:00,0.0,,,,,,,,,,,0.81,-26.87,-20.87,-47,545,-925,26.4,23.7,4.0,26.4,1.7,-28.7,5.73,2.41,-27.6,30.1
2012-08-15 00:09:00,0.0,,,,,,,,,,,0.84,-26.90,-18.97,-47,545,-925,26.4,23.7,4.0,26.4,1.7,-28.2,5.73,2.40,-27.6,30.2
2012-08-15 00:10:00,0.0,,,,,,,,,,,0.90,-26.90,-17.16,-47,545,-925,26.4,23.3,3.8,26.4,1.7,-28.2,5.73,2.39,-27.6,30.2
2012-08-15 00:11:00,0.0,,,,,,,,,,,0.92,-26.89,-15.43,-47,545,-925,26.4,23.4,3.9,26.4,1.7,-28.3,5.73,2.39,-27.6,30.2
2012-08-15 00:12:00,0.0,,,,,,,,,,,0.95,-26.88,-13.81,-47,545,-925,26.4,23.4,3.9,26.4,1.7,-28.4,5.73,2.40,-27.6,30.3
2012-08-15 00:13:00,0.0,,,,,,,,,,,0.93,-26.86,-12.27,-47,545,-925,26.5,23.4,3.9,26.4,1.7,-28.6,5.73,2.41,-27.6,30.3
2012-08-15 00:14:00,0.0,,,,,,,,,,,0.83,-26.83,-10.81,-47,545,-925,26.4,23.3,3.8,26.4,1.7,-28.7,5.73,2.40,-27.6,30.3
2012-08-15 00:15:00,0.0,,,,,,,,,,,0.84,-26.81,-9.43,-47,545,-925,26.5,23.3,3.8,26.4,1.6,-28.8,5.73,2.38,-27.6,30.3
2012-08-15 00:16:00,0.0,,,,,,,,,,,0.88,-26.79,-8.12,-47,545,-925,26.5,23.5,4.0,26.4,1.6,-29.1,5.73,2.39,-27.5,30.3
2012-08-15 00:17:00,0.0,,,,,,,,,,,0.91,-26.76,-6.87,-47,545,-925,26.5,24.0,4.2,26.4,1.6,-29.1,5.73,2.41,-27.5,30.4
2012-08-15 00:18:00,0.0,,,,,,,,,,,0.93,-26.74,-5.69,-47,545,-925,26.5,23.5,4.0,26.4,1.6,-29.2,5.73,2.41,-27.5,30.4
2012-08-15 00:19:00,0.0,,,,,,,,,,,0.95,-26.72,-4.58,-47,545,-925,26.5,24.0,4.2,26.4,1.6,-29.4,5.73,2.39,-27.5,30.4
2012-08-15 00:20:00,0.0,,,,,,,,,,,0.95,-26.69,-3.51,-47,545,-925,26.5,23.8,4.1,26.4,1.5,-29.5,5.73,2.39,-27.5,30.4
2012-08-15 00:21:00,0.0,,,,,,,,,,,0.90,-26.66,-2.49,-47,545,-925,26.5,23.7,4.1,26.4,1.5,-29.6,5.73,2.40,-27.5,30.4
2012-08-15 00:22:00,0.0,,,,,,,,,,,0.85,-26.64,-1.54,-47,545,-925,26.5,23.6,4.0,26.4,1.5,-29.6,5.73,2.41,-27.5,30.4
2012-08-15 00:23:00,0.0,,,,,,,,,,,0.87,-26.63,-0.63,-47,545,-925,26.5,23.6,4.0,26.4,1.5,-29.7,5.73,2.40,-27.5,30.3
2012-08-15 00:24:00,0.0,,,,,,,,,,,0.89,-26.60,0.24,-47,545,-925,26.5,24.0,4.3,26.4,1.5,-29.8,5.73,2.39,-27.5,30.4
2012-08-15 00:25:00,0.0,,,,,,,,,,,0.93,-26.59,1.06,-47,545,-925,26.5,24.2,4.4,26.4,1.5,-29.8,5.73,2.41,-27.5,30.4
2012-08-15 00:26:00,0.0,,,,,,,,,,,0.93,-26.57,1.82,-47,545,-925,26.5,24.3,4.4,26.4,1.5,-29.8,5.73,2.41,-27.5,30.4
2012-08-15 00:27:00,0.0,,,,,,,,,,,0.94,-26.55,2.52,-47,545,-925,26.5,23.8,4.1,26.4,1.5,-29.8,5.73,2.40,-27.5,30.3
2012-08-15 00:28:00,0.0,,,,,,,,,,,0.94,-26.53,3.01,-47,545,-925,26.5,23.9,4.2,26.4,1.5,-30.0,5.73,2.39,-27.5,30.4
2012-08-15 00:29:00,0.0,,,,,,,,,,,0.95,-26.51,3.25,-47,545,-925,26.5,23.7,4.1,26.4,1.5,-30.0,5.73,2.40,-27.4,30.4
2012-08-15 00:30:00,0.0,,,,,,,,,,,0.95,-26.49,3.48,-47,545,-925,26.5,23.8,4.1,26.4,1.5,-29.9,5.73,2.42,-27.4,30.4
2012-08-15 00:31:00,0.0,,,,,,,,,,,0.91,-26.47,3.87,-47,545,-925,26.5,23.6,4.0,26.4,1.5,-30.0,5.73,2.40,-27.4,30.4
2012-08-15 00:32:00,0.0,,,,,,,,,,,0.89,-26.46,4.42,-47,545,-925,26.5,23.8,4.1,26.4,1.5,-30.0,5.73,2.39,-27.4,30.4
2012-08-15 00:33:00,0.0,,,,,,,,,,,0.89,-26.44,5.00,-47,545,-925,26.5,23.3,3.9,26.4,1.5,-30.0,5.73,2.40,-27.4,30.4
2012-08-15 00:34:00,0.0,,,,,,,,,,,0.89,-26.43,5.53,-47,545,-925,26.5,23.7,4.1,26.5,1.4,-30.2,5.73,2.42,-27.4,30.4
2012-08-15 00:35:00,0.0,,,,,,,,,,,0.93,-26.42,6.05,-47,545,-925,26.5,23.4,3.9,26.5,1.4,-30.1,5.73,2.40,-27.4,30.4
2012-08-15 00:36:00,0.0,1.9071,0.0007,384.92,0.31,80.2,25.6,138.04,31.89,24.66,36.55,0.91,-26.40,6.53,-47,545,-925,26.5,23.7,4.1,26.4,1.4,-30.2,5.73,2.39,-27.4,30.4
2012-08-15 00:37:00,0.0,1.9072,0.0009,384.75,0.31,88.1,30.3,138.04,31.89,24.66,36.54,0.92,-26.39,7.00,-47,545,-925,26.5,23.7,4.1,26.5,1.4,-30.1,5.73,2.40,-27.4,30.4
2012-08-15 00:38:00,0.0,1.9073,0.0010,384.48,0.36,77.4,35.9,138.04,31.89,24.66,36.56,0.93,-26.37,7.44,-47,545,-925,26.5,23.3,3.9,26.5,1.4,-30.1,5.73,2.42,-27.4,30.4
2012-08-15 00:39:00,0.0,,,,,,,,,,,0.94,-26.35,7.87,-47,545,-925,26.5,23.5,4.0,26.5,1.4,-30.2,5.73,2.41,-27.4,30.5
2012-08-15 00:40:00,0.0,,,,,,,,,,,0.95,-26.34,8.29,-47,545,-925,26.5,23.8,4.2,26.5,1.4,-30.1,5.73,2.38,-27.3,30.5
2012-08-15 00:41:00,0.0,,,,,,,,,,,0.95,-26.33,8.69,-47,546,-925,26.5,23.4,3.9,26.5,1.4,-30.1,5.73,2.40,-27.3,30.4
2012-08-15 00:42:00,0.0,,,,,,,,,,,0.95,-26.32,9.08,-47,545,-925,26.5,23.5,4.0,26.5,1.4,-30.1,5.73,2.41,-27.3,30.4
2012-08-15 00:43:00,0.0,,,,,,,,,,,0.93,-26.30,9.46,-47,545,-925,26.5,23.1,3.8,26.5,1.4,-30.1,5.73,2.40,-27.3,30.4
2012-08-15 00:44:00,0.0,,,,,,,,,,,0.91,-26.29,9.83,-47,546,-925,26.6,23.4,4.0,26.5,1.4,-30.1,5.73,2.38,-27.3,30.4
2012-08-15 00:45:00,0.0,,,,,,,,,,,0.90,-26.28,10.19,-47,545,-925,26.5,23.4,4.0,26.5,1.4,-30.1,5.73,2.40,-27.3,30.4
2012-08-15 00:46:00,0.0,,,,,,,,,,,0.90,-26.27,10.54,-47,546,-925,26.5,23.6,4.1,26.5,1.4,-30.1,5.73,2.41,-27.3,30.4
2012-08-15 00:47:00,0.0,,,,,,,,,,,0.91,-26.26,10.89,-47,545,-925,26.5,23.0,3.7,26.5,1.4,-30.1,5.73,2.40,-27.3,30.4
2012-08-15 00:48:00,0.0,,,,,,,,,,,0.93,-26.26,11.22,-47,545,-925,26.5,23.4,4.0,26.5,1.4,-30.1,5.73,2.38,-27.3,30.5
2012-08-15 00:49:00,0.0,,,,,,,,,,,0.92,-26.25,11.54,-47,546,-925,26.5,23.6,4.1,26.5,1.4,-30.1,5.73,2.40,-27.3,30.4
2012-08-15 00:50:00,0.0,,,,,,,,,,,0.93,-26.24,11.85,-47,546,-925,26.5,23.8,4.2,26.5,1.4,-30.1,5.73,2.42,-27.3,30.5
2012-08-15 00:51:00,0.0,,,,,,,,,,,0.94,-26.23,12.14,-47,546,-925,26.5,23.4,4.0,26.5,1.4,-30.1,5.73,2.39,-27.3,30.5
2012-08-15 00:52:00,0.0,,,,,,,,,,,0.92,-26.22,12.43,-47,546,-925,26.5,23.4,4.0,26.5,1.4,-30.2,5.73,2.38,-27.3,30.5
2012-08-15 00:53:00,0.0,,,,,,,,,,,0.94,-26.22,12.71,-47,546,-925,26.5,23.0,3.7,26.5,1.4,-30.1,5.73,2.41,-27.3,30.5
2012-08-15 00:54:00,0.0,,,,,,,,,,,0.94,-26.21,12.98,-47,546,-925,26.5,23.5,4.0,26.5,1.4,-30.1,5.73,2.41,-27.3,30.5
2012-08-15 00:55:00,0.0,,,,,,,,,,,0.94,-26.20,13.23,-47,546,-925,26.5,23.6,4.1,26.5,1.4,-30.1,5.73,2.39,-27.3,30.5
2012-08-15 00:56:00,0.0,,,,,,,,,,,0.95,-26.20,13.47,-47,545,-925,26.5,24.0,4.3,26.5,1.4,-30.1,5.73,2.39,-27.3,30.5
2012-08-15 00:57:00,0.0,,,,,,,,,,,0.95,-26.18,13.71,-47,546,-925,26.5,23.0,3.7,26.5,1.4,-30.1,5.73,2.41,-27.3,30.5
2012-08-15 00:58:00,0.0,,,,,,,,,,,0.94,-26.17,13.94,-47,546,-925,26.6,23.0,3.7,26.5,1.4,-30.1,5.73,2.41,-27.3,30.5
2012-08-15 00:59:00,0.0,,,,,,,,,,,0.94,-26.17,14.16,-47,546,-925,26.5,23.8,4.2,26.5,1.4,-30.1,5.73,2.38,-27.3,30.5
2012-08-15 01:00:00,0.0,,,,,,,,,,,0.93,-26.16,14.36,-47,546,-925,26.6,23.5,4.0,26.5,1.4,-30.1,5.73,2.39,-27.3,30.5
2012-08-15 01:01:00,0.0,,,,,,,,,,,0.93,-26.15,14.56,-47,546,-925,26.5,23.5,4.0,26.5,1.5,-30.1,5.73,2.41,-27.3,30.5
2012-08-15 01:02:00,0.0,,,,,,,,,,,0.92,-26.15,14.74,-47,546,-925,26.6,22.8,3.6,26.5,1.4,-30.2,5.73,2.40,-27.3,30.5
2012-08-15 01:03:00,0.0,,,,,,,,,,,0.92,-26.15,14.92,-47,546,-925,26.5,23.2,3.9,26.5,1.4,-30.1,5.73,2.38,-27.3,30.5
2012-08-15 01:04:00,0.0,,,,,,,,,,,0.92,-26.14,15.10,-47,546,-925,26.6,23.4,3.9,26.5,1.4,-30.1,5.73,2.40,-27.3,30.5
2012-08-15 01:05:00,0.0,,,,,,,,,,,0.93,-26.14,15.26,-47,546,-925,26.6,23.2,3.8,26.5,1.4,-30.2,5.73,2.41,-27.3,30.6
2012-08-15 01:06:00,0.0,,,,,,,,,,,0.93,-26.13,15.42,-47,546,-925,26.6,23.4,3.9,26.5,1.4,-30.1,5.73,2.39,-27.3,30.5
2012-08-15 01:07:00,0.0,,,,,,,,,,,0.94,-26.12,15.58,-47,546,-925,26.6,23.6,4.1,26.5,1.4,-30.1,5.73,2.38,-27.3,30.5
2012-08-15 01:08:00,0.0,,,,,,,,,,,0.92,-26.12,15.72,-47,546,-925,26.6,23.8,4.2,26.5,1.4,-30.1,5.73,2.41,-27.3,30.5
2012-08-15 01:09:00,0.0,,,,,,,,,,,0.92,-26.12,15.86,-47,546,-925,26.6,23.5,4.0,26.5,1.4,-30.1,5.73,2.41,-27.3,30.5
2012-08-15 01:10:00,0.0,,,,,,,,,,,0.93,-26.11,15.99,-47,546,-925,26.6,23.1,3.8,26.5,1.4,-30.1,5.73,2.39,-27.3,30.5
2012-08-15 01:11:00,0.0,,,,,,,,,,,0.91,-26.11,16.12,-47,546,-925,26.6,23.0,3.7,26.5,1.4,-30.1,5.73,2.38,-27.3,30.5
2012-08-15 01:12:00,0.0,,,,,,,,,,,0.93,-26.10,16.24,-47,546,-925,26.6,23.4,4.0,26.5,1.4,-30.1,5.73,2.41,-27.3,30.4
2012-08-15 01:13:00,0.0,,,,,,,,,,,0.94,-26.10,16.36,-47,546,-925,26.6,22.9,3.6,26.5,1.4,-30.1,5.73,2.41,-27.3,30.4
2012-08-15 01:14:00,0.0,,,,,,,,,,,0.93,-26.09,16.47,-47,546,-925,26.6,23.2,3.9,26.5,1.4,-30.1,5.73,2.39,-27.3,30.4
2012-08-15 01:15:00,0.0,,,,,,,,,,,0.94,-26.09,16.58,-47,546,-925,26.6,23.9,4.2,26.5,1.4,-30.1,5.73,2.38,-27.3,30.5
2012-08-15 01:16:00,0.0,,,,,,,,,,,0.94,-26.09,16.68,-47,546,-925,26.6,23.3,3.9,26.5,1.4,-30.1,5.73,2.41,-27.3,30.5
2012-08-15 01:17:00,0.0,,,,,,,,,,,0.94,-26.08,16.78,-47,546,-925,26.6,23.4,4.0,26.5,1.4,-30.1,5.73,2.41,-27.3,30.5
2012-08-15 01:18:00,0.0,,,,,,,,,,,0.95,-26.07,16.88,-47,546,-925,26.6,23.4,4.0,26.6,1.4,-30.1,5.73,2.39,-27.3,30.5
2012-08-15 01:19:00,0.0,,,,,,,,,,,0.96,-26.07,16.97,-47,546,-925,26.6,23.1,3.8,26.5,1.4,-30.1,5.73,2.38,-27.3,30.5
2012-08-15 01:20:00,0.0,,,,,,,,,,,0.95,-26.07,17.05,-47,546,-925,26.6,23.1,3.8,26.5,1.4,-30.1,5.73,2.41,-27.3,30.5
2012-08-15 01:21:00,0.0,,,,,,,,,,,0.95,-26.07,17.14,-47,546,-925,26.6,23.5,4.0,26.5,1.4,-30.1,5.73,2.41,-27.3,30.5
2012-08-15 01:22:00,0.0,,,,,,,,,,,0.94,-26.06,17.22,-47,546,-925,26.6,22.9,3.7,26.6,1.4,-30.1,5.73,2.38,-27.3,30.5
2012-08-15 01:23:00,0.0,,,,,,,,,,,0.94,-26.06,17.29,-47,546,-925,26.6,22.3,3.3,26.5,1.4,-30.1,5.73,2.39,-27.3,30.5
2012-08-15 01:24:00,0.0,,,,,,,,,,,0.94,-26.06,17.36,-47,546,-925,26.6,22.5,3.4,26.6,1.4,-30.1,5.73,2.41,-27.3,30.5
2012-08-15 01:25:00,0.0,,,,,,,,,,,0.93,-26.05,17.44,-47,546,-925,26.6,22.5,3.4,26.6,1.4,-30.1,5.73,2.41,-27.3,30.5
2012-08-15 01:26:00,0.0,,,,,,,,,,,0.93,-26.05,17.50,-47,546,-925,26.6,22.6,3.5,26.6,1.4,-30.1,5.73,2.38,-27.3,30.5
2012-08-15 01:27:00,0.0,,,,,,,,,,,0.93,-26.05,17.57,-47,546,-925,26.6,22.8,3.6,26.6,1.4,-30.1,5.73,2.39,-27.3,30.5
2012-08-15 01:28:00,0.0,,,,,,,,,,,0.92,-26.04,17.63,-47,546,-925,26.6,22.3,3.3,26.6,1.4,-30.2,5.73,2.41,-27.3,30.5
2012-08-15 01:29:00,0.0,,,,,,,,,,,0.94,-26.04,17.68,-47,546,-925,26.6,22.4,3.4,26.5,1.4,-30.3,5.73,2.40,-27.3,30.5
2012-08-15 01:30:00,0.0,,,,,,,,,,,0.91,-26.04,17.74,-47,546,-925,26.6,22.3,3.3,26.6,1.4,-30.3,5.73,2.38,-27.3,30.5
2012-08-15 01:31:00,0.0,,,,,,,,,,,0.93,-26.04,17.80,-47,546,-925,26.6,22.7,3.6,26.5,1.4,-30.3,5.73,2.39,-27.3,30.5
2012-08-15 01:32:00,0.0,,,,,,,,,,,0.93,-26.04,17.85,-47,546,-925,26.6,22.7,3.6,26.6,1.4,-30.3,5.73,2.41,-27.3,30.5
2012-08-15 01:33:00,0.0,,,,,,,,,,,0.91,-26.04,17.89,-47,546,-925,26.6,22.3,3.3,26.6,1.4,-30.3,5.73,2.40,-27.3,30.5
2012-08-15 01:34:00,0.0,,,,,,,,,,,0.93,-26.03,17.94,-47,546,-925,26.6,22.6,3.5,26.6,1.4,-30.3,5.73,2.38,-27.3,30.5
2012-08-15 01:35:00,0.0,,,,,,,,,,,0.93,-26.04,17.99,-47,546,-925,26.6,22.7,3.6,26.6,1.4,-30.3,5.73,2.40,-27.3,30.5
2012-08-15 01:36:00,0.0,1.9071,0.0007,384.92,0.31,80.2,25.6,138.04,31.89,24.66,36.55,0.93,-26.03,18.03,-47,546,-925,26.6,23.0,3.8,26.6,1.4,-30.3,5.73,2.41,-27.3,30.5
2012-08-15 01:37:00,0.0,1.9072,0.0009,384.75,0.31,88.1,30.3,138.04,31.89,24.66,36.54,0.94,-26.03,18.08,-47,546,-925,26.6,22.9,3.7,26.6,1.4,-30.3,5.73,2.40,-27.3,30.5
2012-08-15 01:38:00,0.0,1.9073,0.0010,384.48,0.36,77.4,35.9,138.04,31.89,24.66,36.56,0.93,-26.03,18.12,-47,546,-925,26.6,22.9,3.7,26.6,1.4,-30.3,5.73,2.38,-27.3,30.5
2012-08-15 01:39:00,0.0,,,,,,,,,,,0.94,-26.03,18.15,-47,546,-925,26.6,22.5,3.4,26.6,1.4,-30.3,5.73,2.40,-27.3,30.4
2012-08-15 01:40:00,0.0,,,,,,,,,,,0.93,-26.03,18.19,-47,546,-925,26.6,22.1,3.2,26.6,1.4,-30.3,5.73,2.41,-27.3,30.5
2012-08-15 01:41:00,0.0,,,,,,,,,,,0.94,-26.03,18.23,-47,546,-925,26.6,22.5,3.4,26.6,1.4,-30.3,5.73,2.40,-27.3,30.5
2012-08-15 01:42:00,0.0,,,,,,,,,,,0.94,-26.02,18.26,-47,546,-925,26.6,22.9,3.7,26.6,1.4,-30.3,5.73,2.38,-27.3,30.5
2012-08-15 01:43:00,0.0,,,,,,,,,,,0.94,-26.03,18.29,-47,546,-925,26.6,22.9,3.7,26.6,1.4,-30.3,5.73,2.40,-27.3,30.5
2012-08-15 01:44:00,0.0,,,,,,,,,,,0.95,-26.02,18.33,-47,546,-925,26.6,22.7,3.6,26.6,1.4,-30.3,5.73,2.42,-27.3,30.5
2012-08-15 01:45:00,0.0,,,,,,,,,,,0.95,-26.02,18.36,-47,546,-925,26.6,22.4,3.4,26.6,1.4,-30.3,5.73,2.39,-27.3,30.6
2012-08-15 01:46:00,0.0,,,,,,,,,,,0.95,-26.02,18.38,-47,546,-925,26.6,22.4,3.4,26.6,1.4,-30.3,5.73,2.38,-27.3,30.6
2012-08-15 01:47:00,0.0,,,,,,,,,,,0.95,-26.02,18.41,-47,546,-925,26.6,22.4,3.4,26.6,1.4,-30.3,5.73,2.40,-27.3,30.6
2012-08-15 01:48:00,0.0,,,,,,,,,,,0.95,-26.01,18.44,-47,546,-925,26.6,22.7,3.6,26.6,1.4,-30.3,5.73,2.41,-27.2,30.6
2012-08-15 01:49:00,0.0,,,,,,,,,,,0.96,-26.01,18.46,-47,546,-925,26.6,22.8,3.6,26.6,1.4,-30.3,5.73,2.39,-27.3,30.6
2012-08-15 01:50:00,0.0,,,,,,,,,,,0.94,-26.01,18.48,-47,546,-925,26.6,23.0,3.8,26.6,1.4,-30.3,5.73,2.38,-27.3,30.6
2012-08-15 01:51:00,0.0,,,,,,,,,,,0.95,-26.01,18.51,-47,546,-925,26.6,23.4,4.0,26.6,1.4,-30.3,5.73,2.41,-27.3,30.5
2012-08-15 01:52:00,0.0,,,,,,,,,,,0.94,-26.01,18.53,-47,546,-925,26.6,22.7,3.6,26.6,1.4,-30.3,5.73,2.41,-27.3,30.6
2012-08-15 01:53:00,0.0,,,,,,,,,,,0.93,-26.01,18.55,-47,546,-925,26.6,22.5,3.4,26.6,1.4,-30.3,5.73,2.39,-27.3,30.5
2012-08-15 01:54:00,0.0,,,,,,,,,,,0.93,-26.01,18.57,-47,546,-925,26.6,22.6,3.5,26.6,1.4,-30.3,5.73,2.38,-27.3,30.5
2012-08-15 01:55:00,0.0,,,,,,,,,,,0.94,-26.01,18.59,-47,546,-925,26.6,22.8,3.6,26.6,1.4,-30.3,5.73,2.41,-27.3,30.5
2012-08-15 01:56:00,0.0,,,,,,,,,,,0.95,-26.01,18.61,-47,546,-925,26.6,22.8,3.6,26.6,1.4,-30.3,5.73,2.41,-27.3,30.5
2012-08-15 01:57:00,0.0,,,,,,,,,,,0.91,-26.01,18.62,-47,546,-925,26.6,23.0,3.8,26.6,1.4,-30.3,5.73,2.39,-27.3,30.5
2012-08-15 01:58:00,0.0,,,,,,,,,,,0.93,-26.01,18.64,-47,546,-925,26.6,23.4,4.0,26.6,1.4,-30.3,5.73,2.39,-27.3,30.6
2012-08-15 01:59:00,0.0,,,,,,,,,,,0.93,-26.01,18.66,-47,546,-925,26.6,23.5,4.1,26.6,1.4,-30.3,5.73,2.41,-27.3,30.5
2012-08-15 02:00:00,0.0,,,,,,,,,,,0.91,-26.01,18.67,-47,546,-925,26.6,23.5,4.0,26.6,1.4,-30.3,5.73,2.40,-27.3,30.5
2012-08-15 02:01:00,0.0,,,,,,,,,,,0.92,-26.00,18.69,-47,546,-925,26.6,23.1,3.8,26.6,1.4,-30.3,5.73,2.38,-27.3,30.5
2012-08-15 02:02:00,0.0,,,,,,,,,,,0.93,-26.01,18.70,-47,546,-925,26.6,23.0,3.7,26.6,1.4,-30.3,5.73,2.39,-27.3,30.5
2012-08-15 02:03:00,0.0,,,,,,,,,,,1.05,-26.01,18.53,-47,546,-925,26.6,23.5,4.1,26.6,1.4,-30.4,5.73,2.42,-27.3,30.6
2012-08-15 02:04:00,0.0,,,,,,,,,,,1.11,-26.00,16.94,-47,546,-925,26.6,23.6,4.1,26.6,1.4,-30.3,5.73,2.40,-27.3,30.5
2012-08-15 02:05:00,0.0,,,,,,,,,,,1.06,-26.00,14.65,-47,546,-925,26.6,22.8,3.6,26.6,1.4,-30.3,5.73,2.38,-27.3,30.5
2012-08-15 02:06:00,0.0,,,,,,,,,,,1.01,-26.04,12.26,-47,546,-925,26.6,22.7,3.6,26.6,1.4,-30.3,5.73,2.39,-27.3,30.5
2012-08-15 02:07:00,0.0,,,,,,,,,,,1.01,-26.10,9.91,-47,546,-925,26.6,22.4,3.4,26.6,1.4,-30.3,5.73,2.41,-27.3,30.5
2012-08-15 02:08:00,0.0,,,,,,,,,,,0.98,-26.12,7.63,-47,546,-925,26.6,22.7,3.6,26.6,1.4,-30.3,5.73,2.40,-27.3,30.4
2012-08-15 02:09:00,0.0,,,,,,,,,,,1.06,-26.13,5.47,-47,546,-925,26.6,23.1,3.8,26.6,1.4,-30.3,5.73,2.39,-27.3,30.4
2012-08-15 02:10:00,0.0,,,,,,,,,,,1.06,-26.13,3.42,-47,546,-925,26.6,23.7,4.2,26.6,1.4,-30.3,5.73,2.38,-27.3,30.4
2012-08-15 02:11:00,0.0,,,,,,,,,,,0.99,-26.14,1.47,-47,546,-925,26.6,23.6,4.1,26.6,1.4,-30.3,5.73,2.40,-27.3,30.4
2012-08-15 02:12:00,0.0,,,,,,,,,,,1.06,-26.14,-0.37,-47,546,-925,26.6,23.0,3.7,26.6,1.4,-30.3,5.73,2.41,-27.3,30.4
2012-08-15 02:13:00,0.0,,,,,,,,,,,1.07,-26.14,-2.05,-47,546,-925,26.6,22.8,3.7,26.6,1.4,-30.3,5.73,2.40,-27.3,30.4
2012-08-15 02:14:00,0.0,,,,,,,,,,,0.98,-26.14,-3.52,-47,546,-925,26.6,22.5,3.4,26.5,1.4,-30.3,5.73,2.38,-27.3,30.4
2012-08-15 02:15:00,0.0,,,,,,,,,,,1.08,-26.14,-4.57,-47,546,-925,26.6,22.7,3.6,26.6,1.4,-30.3,5.73,2.38,-27.3,30.4
2012-08-15 02:16:00,0.0,,,,,,,,,,,1.05,-26.14,-5.95,-47,546,-925,26.6,22.3,3.3,26.6,1.4,-30.3,5.73,2.40,-27.3,30.3
2012-08-15 02:17:00,0.0,,,,,,,,,,,0.97,-26.14,-7.31,-47,546,-925,26.6,22.5,3.4,26.6,1.4,-30.3,5.73,2.40,-27.3,30.4
2012-08-15 02:18:00,0.0,,,,,,,,,,,1.03,-26.14,-8.57,-47,546,-925,26.6,22.1,3.2,26.5,1.4,-30.3,5.73,2.39,-27.3,30.3
2012-08-15 02:19:00,0.0,,,,,,,,,,,1.09,-26.15,-9.70,-47,546,-925,26.6,22.1,3.2,26.5,1.4,-30.3,5.73,2.38,-27.3,30.3
2012-08-15 02:20:00,0.0,,,,,,,,,,,0.98,-26.15,-10.79,-47,546,-925,26.6,22.7,3.6,26.5,1.4,-30.3,5.73,2.37,-27.3,30.3
2012-08-15 02:21:00,0.0,,,,,,,,,,,0.99,-26.15,-11.74,-47,546,-925,26.6,22.8,3.6,26.5,1.4,-30.3,5.73,2.39,-27.3,30.3
2012-08-15 02:22:00,0.0,,,,,,,,,,,1.06,-26.15,-12.75,-47,546,-925,26.6,22.6,3.5,26.5,1.4,-30.3,5.73,2.40,-27.3,30.3
2012-08-15 02:23:00,0.0,,,,,,,,,,,1.05,-26.16,-13.75,-47,546,-925,26.6,22.2,3.2,26.5,1.4,-30.3,5.73,2.39,-27.3,30.3
2012-08-15 02:24:00,0.0,,,,,,,,,,,0.96,-26.17,-14.68,-47,546,-925,26.6,21.7,2.9,26.5,1.4,-30.3,5.73,2.38,-27.3,30.3
2012-08-15 02:25:00,0.0,,,,,,,,,,,1.03,-26.18,-15.59,-47,546,-925,26.6,22.4,3.4,26.5,1.4,-30.3,5.73,2.38,-27.3,30.3
2012-08-15 02:26:00,0.0,,,,,,,,,,,1.08,-26.18,-16.45,-47,546,-925,26.6,22.6,3.5,26.5,1.4,-30.5,5.73,2.40,-27.3,30.3
2012-08-15 02:27:00,0.0,,,,,,,,,,,0.99,-26.19,-17.21,-47,546,-925,26.6,22.3,3.3,26.5,1.4,-30.6,5.73,2.40,-27.3,30.4
2012-08-15 02:28:00,0.0,,,,,,,,,,,0.96,-26.20,-17.90,-47,546,-925,26.6,22.5,3.4,26.5,1.4,-30.6,5.73,2.39,-27.3,30.3
2012-08-15 02:29:00,0.0,,,,,,,,,,,1.03,-26.21,-18.60,-47,546,-925,26.6,23.2,3.9,26.5,1.4,-30.5,5.73,2.38,-27.3,30.3
2012-08-15 02:30:00,0.0,,,,,,,,,,,1.08,-26.22,-19.27,-47,546,-925,26.6,23.0,3.7,26.5,1.4,-30.5,5.73,2.38,-27.3,30.3
2012-08-15 02:31:00,0.0,,,,,,,,,,,1.00,-26.23,-19.91,-47,546,-925,26.6,22.1,3.1,26.5,1.4,-30.5,5.73,2.39,-27.3,30.3
2012-08-15 02:32:00,0.0,,,,,,,,,,,0.96,-26.24,-20.49,-47,546,-925,26.6,22.0,3.1,26.5,1.4,-30.6,5.73,2.40,-27.4,30.3
2012-08-15 02:33:00,0.0,,,,,,,,,,,1.01,-26.24,-21.04,-47,546,-925,26.5,21.9,3.0,26.5,1.4,-30.5,5.73,2.40,-27.4,30.3
2012-08-15 02:34:00,0.0,,,,,,,,,,,1.07,-26.26,-21.56,-47,546,-925,26.6,22.2,3.2,26.5,1.4,-30.5,5.73,2.38,-27.4,30.3
2012-08-15 02:35:00,0.0,,,,,,,,,,,1.01,-26.26,-22.04,-47,546,-925,26.6,22.2,3.2,26.5,1.4,-30.6,5.73,2.38,-27.4,30.3
2012-08-15 02:36:00,0.0,1.9071,0.0007,384.92,0.31,80.2,25.6,138.04,31.89,24.66,36.55,0.96,-26.28,-22.49,-47,546,-925,26.5,23.1,3.8,26.5,1.4,-30.5,5.73,2.39,-27.4,30.3
2012-08-15 02:37:00,0.0,1.9072,0.0009,384.75,0.31,88.1,30.3,138.04,31.89,24.66,36.54,1.01,-26.29,-22.92,-47,546,-925,26.6,23.0,3.7,26.5,1.4,-30.6,5.73,2.39,-27.4,30.3
2012-08-15 02:38:00,0.0,1.9073,0.0010,384.48,0.36,77.4,35.9,138.04,31.89,24.66,36.56,1.06,-26.30,-23.33,-47,546,-925,26.5,22.9,3.7,26.5,1.4,-30.5,5.73,2.40,-27.4,30.2
2012-08-15 02:39:00,0.0,,,,,,,,,,,1.02,-26.31,-23.71,-47,546,-925,26.5,23.1,3.8,26.5,1.4,-30.5,5.73,2.39,-27.4,30.2
2012-08-15 02:40:00,0.0,,,,,,,,,,,0.95,-26.32,-24.07,-47,546,-925,26.5,23.2,3.8,26.5,1.4,-30.6,5.73,2.38,-27.4,30.3
2012-08-15 02:41:00,0.0,,,,,,,,,,,1.00,-26.33,-24.41,-47,546,-925,26.6,23.0,3.7,26.5,1.4,-30.5,5.73,2.38,-27.4,30.3
2012-08-15 02:42:00,0.0,,,,,,,,,,,1.03,-26.34,-24.73,-47,546,-925,26.5,22.9,3.7,26.5,1.4,-30.6,5.73,2.39,-27.4,30.3
2012-08-15 02:43:00,0.0,,,,,,,,,,,1.05,-26.35,-25.03,-47,546,-925,26.5,23.5,4.0,26.5,1.4,-30.6,5.73,2.40,-27.4,30.3
2012-08-15 02:44:00,0.0,,,,,,,,,,,0.99,-26.37,-25.31,-47,546,-925,26.5,23.6,4.1,26.5,1.4,-30.7,5.73,2.40,-27.4,30.3
2012-08-15 02:45:00,0.0,,,,,,,,,,,0.96,-26.37,-25.58,-47,546,-925,26.6,23.4,4.0,26.5,1.4,-30.7,5.73,2.38,-27.4,30.3
2012-08-15 02:46:00,0.0,,,,,,,,,,,1.01,-26.38,-25.83,-47,546,-925,26.5,23.6,4.1,26.5,1.4,-30.7,5.73,2.38,-27.4,30.3
2012-08-15 02:47:00,0.0,,,,,,,,,,,1.04,-26.40,-26.07,-47,546,-925,26.5,23.8,4.2,26.5,1.4,-30.7,5.73,2.38,-27.3,30.3
2012-08-15 02:48:00,0.0,,,,,,,,,,,1.04,-26.40,-26.29,-47,546,-925,26.5,23.9,4.3,26.5,1.4,-30.8,5.73,2.40,-27.3,30.2
2012-08-15 02:49:00,0.0,,,,,,,,,,,0.95,-26.41,-26.35,-47,546,-925,26.5,23.3,3.9,26.5,1.4,-30.7,5.73,2.41,-27.4,30.2
2012-08-15 02:50:00,0.0,,,,,,,,,,,0.97,-26.42,-26.15,-47,546,-925,26.5,23.2,3.8,26.5,1.4,-30.7,5.73,2.40,-27.3,30.2
2012-08-15 02:51:00,0.0,,,,,,,,,,,1.02,-26.43,-26.28,-47,546,-925,26.5,23.0,3.7,26.5,1.4,-30.8,5.73,2.38,-27.4,30.3
2012-08-15 02:52:00,0.0,,,,,,,,,,,1.05,-26.43,-26.43,-47,546,-925,26.5,23.3,3.9,26.5,1.4,-30.8,5.73,2.38,-27.4,30.3
2012-08-15 02:53:00,0.0,,,,,,,,,,,1.01,-26.44,-26.18,-47,546,-925,26.5,23.7,4.1,26.5,1.4,-30.7,5.73,2.39,-27.4,30.3
2012-08-15 02:54:00,0.0,,,,,,,,,,,0.98,-26.46,-26.23,-47,546,-925,26.5,23.6,4.1,26.5,1.4,-30.7,5.73,2.40,-27.3,30.3
2012-08-15 02:55:00,0.0,,,,,,,,,,,0.97,-26.46,-26.40,-47,546,-925,26.5,23.6,4.0,26.5,1.4,-30.8,5.73,2.40,-27.4,30.3
2012-08-15 02:56:00,0.0,,,,,,,,,,,0.95,-26.47,-26.33,-47,546,-925,26.5,23.4,3.9,26.5,1.4,-30.8,5.73,2.39,-27.4,30.3
2012-08-15 02:57:00,0.0,,,,,,,,,,,1.05,-26.48,-26.21,-47,546,-925,26.5,23.8,4.2,26.5,1.4,-30.8,5.73,2.38,-27.4,30.3
2012-08-15 02:58:00,0.0,,,,,,,,,,,1.06,-26.48,-26.36,-47,546,-925,26.5,23.6,4.1,26.5,1.4,-30.7,5.73,2.38,-27.4,30.3
2012-08-15 02:59:00,0.0,,,,,,,,,,,0.91,-26.49,-26.46,-47,546,-925,26.5,23.6,4.0,26.5,1.4,-30.7,5.73,2.39,-27.4,30.3
2012-08-15 03:00:00,0.0,,,,,,,,,,,0.98,-26.50,-26.22,-47,546,-925,26.5,23.4,3.9,26.5,1.4,-30.7,5.73,2.41,-27.4,30.3
2012-08-15 03:01:00,0.0,,,,,,,,,,,1.02,-26.51,-26.33,-47,546,-925,26.5,23.3,3.9,26.5,1.4,-30.8,5.73,2.40,-27.4,30.3
2012-08-15 03:02:00,0.0,,,,,,,,,,,0.94,-26.40,-26.51,-47,546,-925,26.5,23.8,4.2,26.5,1.4,-30.8,5.73,2.37,-27.4,30.3
2012-08-15 03:03:00,0.0,,,,,,,,,,,0.90,-25.14,-26.70,-47,546,-925,26.5,23.8,4.2,26.5,1.4,-30.8,5.73,2.38,-27.4,30.3
2012-08-15 03:04:00,0.0,,,,,,,,,,,0.93,-23.26,-26.82,-47,546,-925,26.5,23.9,4.2,26.5,1.5,-29.6,5.73,2.39,-27.4,30.4
2012-08-15 03:05:00,0.0,,,,,,,,,,,0.94,-21.31,-26.89,-47,546,-925,26.5,23.8,4.2,26.5,1.6,-28.8,5.73,2.41,-27.4,30.4
2012-08-15 03:06:00,0.0,,,,,,,,,,,0.95,-19.43,-26.93,-47,546,-925,26.5,23.0,3.7,26.5,1.7,-28.5,5.73,2.39,-27.4,30.3
2012-08-15 03:07:00,0.0,,,,,,,,,,,0.93,-17.63,-26.96,-47,546,-925,26.5,23.1,3.7,26.5,1.7,-28.4,5.73,2.38,-27.4,30.3
2012-08-15 03:08:00,0.0,,,,,,,,,,,0.89,-15.93,-26.97,-47,546,-925,26.5,23.8,4.2,26.5,1.7,-28.6,5.73,2.38,-27.4,30.3
2012-08-15 03:09:00,0.0,,,,,,,,,,,0.85,-14.31,-26.96,-47,546,-925,26.5,23.5,4.0,26.5,1.6,-28.7,5.73,2.40,-27.4,30.3
2012-08-15 03:10:00,0.0,,,,,,,,,,,0.87,-12.79,-26.96,-47,546,-924,26.5,23.2,3.8,26.5,1.6,-28.8,5.73,2.40,-27.4,30.3
2012-08-15 03:11:00,0.0,,,,,,,,,,,0.92,-11.34,-26.96,-47,546,-925,26.5,23.6,4.1,26.5,1.6,-29.0,5.73,2.39,-27.4,30.3
2012-08-15 03:12:00,0.0,,,,,,,,,,,0.91,-9.96,-26.95,-47,546,-925,26.5,24.0,4.3,26.5,1.6,-29.2,5.73,2.38,-27.4,30.4
2012-08-15 03:13:00,0.0,,,,,,,,,,,0.92,-8.67,-26.93,-47,546,-925,26.5,24.0,4.3,26.5,1.6,-29.2,5.73,2.39,-27.4,30.3
2012-08-15 03:14:00,0.0,,,,,,,,,,,0.94,-7.43,-26.93,-47,546,-925,26.5,23.3,3.9,26.5,1.6,-29.4,5.73,2.40,-27.4,30.3
2012-08-15 03:15:00,0.0,,,,,,,,,,,0.95,-6.25,-26.91,-47,546,-925,26.5,23.6,4.1,26.5,1.5,-29.5,5.73,2.40,-27.4,30.4
2012-08-15 03:16:00,0.0,,,,,,,,,,,0.95,-5.12,-26.90,-47,546,-924,26.5,23.9,4.2,26.5,1.5,-29.6,5.73,2.38,-27.4,30.4
2012-08-15 03:17:00,0.0,,,,,,,,,,,0.93,-4.05,-26.89,-47,546,-925,26.6,23.3,3.9,26.5,1.5,-29.6,5.73,2.38,-27.4,30.3
2012-08-15 03:18:00,0.0,,,,,,,,,,,0.91,-3.04,-26.88,-47,546,-925,26.6,23.3,3.9,26.5,1.5,-29.8,5.73,2.39,-27.3,30.3
2012-08-15 03:19:00,0.0,,,,,,,,,,,0.91,-2.08,-26.86,-47,546,-925,26.5,23.5,4.0,26.5,1.5,-29.8,5.73,2.40,-27.3,30.4